TimePDT,TemperatureF,Dew PointF,Humidity,Sea Level PressureIn,VisibilityMPH,Wind Direction,Wind SpeedMPH,Gust SpeedMPH,PrecipitationIn,Events,Conditions,WindDirDegrees,DateUTC
12:56 AM,57.0,42.1,57,29.95,10.0,Calm,Calm,-,N/A,,Overcast,0,2013-09-29 07:56:00
1:56 AM,55.9,44.1,64,29.95,10.0,Calm,Calm,-,0.00,,Overcast,0,2013-09-29 08:56:00
2:56 AM,55.9,44.1,64,29.94,10.0,Variable,4.6,-,N/A,,Overcast,0,2013-09-29 09:56:00
3:56 AM,54.0,45.0,72,29.93,10.0,East,3.5,-,0.00,Rain,Light Rain,100,2013-09-29 10:56:00
4:56 AM,51.1,48.0,89,29.93,6.0,Variable,3.5,-,0.01,Rain,Light Rain,0,2013-09-29 11:56:00
5:47 AM,50.0,46.4,87,29.91,10.0,Variable,4.6,-,0.00,,Overcast,0,2013-09-29 12:47:00
5:56 AM,50.0,46.9,89,29.93,10.0,Variable,4.6,-,0.00,Rain,Light Rain,0,2013-09-29 12:56:00
6:06 AM,50.0,46.4,87,29.91,10.0,Calm,Calm,-,0.00,Rain,Light Rain,0,2013-09-29 13:06:00
6:17 AM,50.0,46.4,87,29.91,8.0,Variable,4.6,-,0.01,Rain,Light Rain,0,2013-09-29 13:17:00
6:56 AM,50.0,46.0,86,29.94,10.0,Variable,4.6,-,0.01,Rain,Light Rain,0,2013-09-29 13:56:00
7:56 AM,48.9,46.0,90,29.96,9.0,Variable,5.8,-,0.00,Rain,Light Rain,0,2013-09-29 14:56:00
8:04 AM,48.2,46.4,93,29.95,7.0,Variable,5.8,-,0.01,Rain,Light Rain,0,2013-09-29 15:04:00
8:56 AM,50.0,46.9,89,29.97,10.0,Variable,5.8,-,0.02,Rain,Light Rain,0,2013-09-29 15:56:00
9:56 AM,51.1,48.0,89,29.97,10.0,Variable,4.6,-,0.02,Rain,Light Rain,0,2013-09-29 16:56:00
10:12 AM,51.8,48.2,88,29.96,10.0,Variable,4.6,-,0.00,Rain,Light Rain,0,2013-09-29 17:12:00
10:33 AM,51.8,48.2,88,29.95,10.0,Variable,4.6,-,0.01,Rain,Light Rain,0,2013-09-29 17:33:00
10:56 AM,52.0,48.9,89,29.98,7.0,Variable,3.5,-,0.01,Rain,Light Rain,0,2013-09-29 17:56:00
11:56 AM,53.1,50.0,89,29.97,10.0,Variable,3.5,-,0.01,Rain,Light Rain,0,2013-09-29 18:56:00
12:05 PM,53.6,51.8,94,29.95,8.0,Variable,6.9,-,0.01,Rain,Light Rain,0,2013-09-29 19:05:00
12:56 PM,55.0,51.1,86,29.97,10.0,Variable,3.5,-,0.01,Rain,Light Rain,0,2013-09-29 19:56:00
1:36 PM,55.4,51.8,88,29.95,10.0,Variable,3.5,-,0.01,,Overcast,0,2013-09-29 20:36:00
1:44 PM,55.4,51.8,88,29.94,10.0,Variable,5.8,-,0.01,Rain,Light Rain,0,2013-09-29 20:44:00
1:56 PM,55.0,51.1,86,29.94,10.0,Variable,4.6,-,0.01,Rain,Light Rain,0,2013-09-29 20:56:00
2:56 PM,54.0,51.1,90,29.94,6.0,Variable,5.8,-,0.00,Rain,Light Rain,0,2013-09-29 21:56:00
3:56 PM,54.0,51.1,90,29.94,7.0,Variable,5.8,-,0.02,Rain,Light Rain,0,2013-09-29 22:56:00
4:56 PM,55.0,51.1,86,29.94,10.0,Variable,4.6,-,0.01,Rain,Light Rain,0,2013-09-29 23:56:00
5:56 PM,55.0,51.1,86,29.94,10.0,Variable,3.5,-,0.01,Rain,Light Rain,0,2013-09-30 00:56:00
6:56 PM,54.0,51.1,90,29.94,10.0,Variable,5.8,-,0.00,Rain,Light Rain,0,2013-09-30 01:56:00
7:56 PM,54.0,51.1,90,29.95,9.0,Variable,3.5,-,0.02,Rain,Light Rain,0,2013-09-30 02:56:00
8:56 PM,54.0,51.1,90,29.94,10.0,Variable,4.6,-,0.01,Rain,Light Rain,0,2013-09-30 03:56:00
9:56 PM,53.1,50.0,89,29.93,10.0,Variable,4.6,-,0.01,Rain,Light Rain,0,2013-09-30 04:56:00
10:11 PM,53.6,50.0,88,29.90,10.0,Variable,3.5,-,0.00,Rain,Light Rain,0,2013-09-30 05:11:00
10:56 PM,54.0,51.1,90,29.92,6.0,Variable,4.6,-,0.03,Rain,Light Rain,0,2013-09-30 05:56:00
11:52 PM,53.6,51.8,94,29.89,8.0,Variable,4.6,-,0.02,Rain,Light Rain,0,2013-09-30 06:52:00
11:56 PM,54.0,51.1,90,29.91,10.0,Variable,3.5,-,0.02,Rain,Light Rain,0,2013-09-30 06:56:00